Location: Gudip?du
(17.0263°N, 80.8301°E)
Time: 12:59:11
(UTC+00:00)

SJ-6B - Pass Details

Date: 03 August 2024
Orbit: 483 x 543 km, 97.4° (Epoch: 12 September)

Event Time Altitude Azimuth Distance (km) Brightness Sun altitude
Exits shadow 14:06:51 - 166° (SSE) 1,856 5.2 -13.9°
Reaches altitude 10° 14:06:59 10° 165° (SSE) 1,801 5.1 -13.9°
Maximum altitude 14:10:53 81° 80° (E) 557 2.7 -14.8°
Drops below altitude 10° 14:14:49 10° 352° (N) 1,820 5.9 -15.6°
Sets 14:16:57 0° 351° (N) 2,715 6.8 -16.1°
